Regional Weather Roundup
Issued by NWS

Home | Current Version | Previous Version | Graphics & Text | Print | Product List | Glossary On
Versions: 1 2 3 4 5 6 7 8 9 10 11 12 13 14 15 16 17 18 19 20 21 22 23 24 25 26 27 28 29 30 31 32 33 34 35 36 37 38 39 40 41 42 43 44 45 46 47 48 49 50
000
ASUS45 KBOU 292007
RWRCO

WEATHER ROUNDUP FOR COLORADO
NATIONAL WEATHER SERVICE DENVER/BOULDER CO
200 PM MDT TUE JUL 29 2014

NOTE: "FAIR" INDICATES FEW OR NO CLOUDS BELOW 12000 FEET WITH NO
SIGNIFICANT WEATHER AND/OR OBSTRUCTIONS TO VISIBILITY.

COZ001>005-013-030-031-292100-
...NORTHWEST COLORADO...

CITY           SKY/WX    TMP DP  RH WIND       PRES   REMARKS
CRAIG          LGT RAIN  58  58 100 SW7       30.33F
HAYDEN         CLOUDY    61  54  77 NW3       30.35S
MEEKER         CLOUDY    66  53  63 E10       30.33F
MOUNT WERNER   NOT AVBL
STEAMBOAT SPGS CLOUDY    59  55  86 W3        30.37S
WALDEN         CLOUDY    66  46  48 NW9G20    30.36S
$$

COZ006>008-011-292100-
...WEST CENTRAL VALLEYS...

CITY           SKY/WX    TMP DP  RH WIND       PRES   REMARKS
GRAND JUNCTION PTSUNNY   73  58  59 SW5       30.22F
MONTROSE       MOSUNNY   75  58  55 CALM      30.27F
EAGLE          LGT RAIN  63  59  88 CALM      30.38F
RIFLE          CLOUDY    69  58  67 E3        30.29F
DELTA          MOSUNNY   82  56  41 SW6       30.23F
NUCLA          NOT AVBL
$$

COZ017>023-064>068-292100-
...SOUTHWEST COLORADO...

CITY           SKY/WX    TMP DP  RH WIND       PRES   REMARKS
DURANGO        PTSUNNY   77  50  38 VRB5      30.30F
CORTEZ         SUNNY     80  56  43 SW10      30.26F
PAGOSA SPRINGS CLOUDY    72  48  43 SW6       30.38F
TELLURIDE      PTSUNNY   64  54  68 W10G21    30.47F
WOLF CREEK PAS NOT AVBL
$$

COZ009-010-012-014-032>034-037-058>063-292100-
...CENTRAL COLORADO...

CITY           SKY/WX    TMP DP  RH WIND       PRES   REMARKS
ASPEN          LGT RAIN  59  54  83 NW3       30.42F
BUENA VISTA    CLOUDY    66  47  50 W9        30.39S
COPPER MTN     CLOUDY    54  46  76 W17       30.66F
BERTHOUD PASS  CLOUDY    45  32  61 SE9       30.70F
COTTONWOOD PAS LGT RAIN  59  50  72 NW5       30.52F
GUNNISON       PTSUNNY   66  54  63 NE6       30.39F
KREMMLING      CLOUDY    70  48  46 SW18G25   30.36S
LEADVILLE      LGT RAIN  54  48  80 W6        30.51S
MONARCH PASS   CLOUDY    46  45  93 W17G28    30.76S
SALIDA         CLOUDY    63  55  76 NW6       30.44R
SUNLIGHT       CLOUDY    52  50  93 CALM      30.62S
WILKERSON PASS CLOUDY    54  45  71 MISG      30.63F
$$

COZ069>075-292100-
...SAN LUIS VALLEY/SANGRE DE CRISTO MOUNTAINS...

CITY           SKY/WX    TMP DP  RH WIND       PRES   REMARKS
ALAMOSA        PTSUNNY   70  52  52 VRB3      30.35F
LA VETA PASS   MOSUNNY   64  50  59 W6        30.52F THUNDER
SAGUACHE       DRIZZLE   63  54  72 CALM      30.40S
$$

COZ035-036-038>040-292100-
...NORTHERN COLORADO FRONT RANGE...

CITY           SKY/WX    TMP DP  RH WIND       PRES   REMARKS
DENVER INTL AP PTSUNNY   76  54  46 SE28G35   30.20R
DMNS CITY PARK   N/A     81  53  36 N3G12     30.17F
AURORA         PTSUNNY   73  55  53 SE24G36   30.22S
FRONT RANGE AP PTSUNNY   73  57  56 SE26G35   30.22
ERIE MUNI ARPT CLOUDY    79  56  44 NW6       30.17F
BOULDER MUN AP PTSUNNY   81  55  41 N5        30.18F
CENTENNIAL     PTSUNNY   79  53  40 NE10G18   30.21F
BROOMFIELD     CLOUDY    79  55  44 N6        30.21F
FORT COLLINS   PTSUNNY   81  59  47 E7        30.16F
LONGMONT       PTSUNNY   85  54  34 CALM      30.19F
$$

COZ041-046-047-076>085-087-088-292100-
...PIKES PEAK/PALMER DIVIDE AND SOUTHERN FOOTHILLS...

CITY           SKY/WX    TMP DP  RH WIND       PRES   REMARKS
COLO. SPRINGS  PTSUNNY   75  57  53 CALM      30.25F
A. F. ACADEMY  CLOUDY    75  53  47 S9        30.25F
ELLICOTT       PTSUNNY   75  56  51 SE6       30.24F
FALCON         PTSUNNY   75  54  47 SE7       30.30F
FORT CARSON    CLOUDY    74  59  58 VRB2      30.23F
LIMON          TSTM      69  62  78 VRB5      30.20F
MONUMENT HILL  CLOUDY    70  54  56 E14       30.30S
TRINIDAD       PTSUNNY   79  54  41 SE8       30.21F
$$

COZ042>045-048>051-090-091-292100-
...NORTHEAST COLORADO...

CITY           SKY/WX    TMP DP  RH WIND       PRES   REMARKS
GREELEY ARPT   PTSUNNY   84  61  45 E12G18    30.16F
AKRON          MOSUNNY   85  55  35 SE14G25   30.17F
BURLINGTON     PTSUNNY   83  60  45 SE17      30.16F
WRAY             N/A     89  55  30 SE16G24   30.13F
STERLING       MOSUNNY   90  59  35 SE13G18   30.14F
HOLYOKE        MOSUNNY   84  61  45 E14G20    30.17F
FORT MORGAN    MOSUNNY   88  49  26 E16G22    30.16F
$$

COZ086-089-092>099-292100-
...SOUTHEAST COLORADO...

CITY           SKY/WX    TMP DP  RH WIND       PRES   REMARKS
PUEBLO         MOSUNNY   82  60  47 S7        30.14F
LA JUNTA       MOSUNNY   83  63  50 E8        30.12F
LAMAR          PTSUNNY   87  61  41 SE13G21   30.08F
SPRINGFIELD      N/A     84  62  47 S12G20    30.14F
$$



USA.gov is the U.S. government's official web portal to all federal, state and local government web resources and services.